This is the latest recevied weather packets stored in our database for station/object KM4KBD. If no packets are shown the sender has not sent any weather packets the latest 10 day(s).
| Time | Temp. | Humidity | Pressure | Rain* | Wind** | Luminosity | Snow |
|---|---|---|---|---|---|---|---|
| 1778019539 | 20.56° C | 62% | 1015.1 hPa | 0 mm | - | 96 W/m² | - |
| 1778019235 | 20.56° C | 62% | 1015.1 hPa | 0 mm | - | 56 W/m² | - |
| 1778018933 | 20.56° C | 62% | 1015.1 hPa | 0 mm | - | 69 W/m² | - |
| 1778018630 | 20.56° C | 60% | 1015.2 hPa | 0 mm | - | 63 W/m² | - |
| 1778018327 | 20.56° C | 62% | 1015.2 hPa | 0 mm | - | 45 W/m² | - |
| 1778018025 | 20.56° C | 60% | 1015.2 hPa | 0 mm | - | 39 W/m² | - |
| 1778017723 | 20.56° C | 60% | 1015.3 hPa | 0 mm | - | 32 W/m² | - |
| 1778017420 | 20.56° C | 59% | 1015.3 hPa | 0 mm | - | 44 W/m² | - |
| 1778017117 | 20.56° C | 60% | 1015 hPa | 0 mm | - | 43 W/m² | - |
| 1778016815 | 20.56° C | 60% | 1015.1 hPa | 0 mm | - | 41 W/m² | - |
| 1778016511 | 20.56° C | 61% | 1015.2 hPa | 0 mm | - | 48 W/m² | - |
| 1778016208 | 20.56° C | 61% | 1015.2 hPa | 0 mm | - | 49 W/m² | - |
| 1778015904 | 20.56° C | 61% | 1015.3 hPa | 0 mm | - | 60 W/m² | - |
| 1778015602 | 20.56° C | 61% | 1015.2 hPa | 0 mm | - | 56 W/m² | - |
| 1778015298 | 20.56° C | 60% | 1015.2 hPa | 0 mm | - | 70 W/m² | - |
| 1778014995 | 20.56° C | 60% | 1015.3 hPa | 0 mm | - | 52 W/m² | - |
| 1778014692 | 20.56° C | 61% | 1015.5 hPa | 0 mm | - | 67 W/m² | - |
| 1778014391 | 20.56° C | 60% | 1015.5 hPa | 0 mm | - | 76 W/m² | - |
| 1778014087 | 20.56° C | 59% | 1015.4 hPa | 0 mm | - | 83 W/m² | - |
| 1778013785 | 20.56° C | 59% | 1015.7 hPa | 0 mm | - | 88 W/m² | - |
| 1778013481 | 20.56° C | 58% | 1015.7 hPa | 0 mm | - | 94 W/m² | - |
| 1778013178 | 21.11° C | 57% | 1015.8 hPa | 0 mm | - | 95 W/m² | - |
| 1778012874 | 21.11° C | 55% | 1015.9 hPa | 0 mm | - | 81 W/m² | - |
| 1778012571 | 21.11° C | 56% | 1016 hPa | 0 mm | - | 148 W/m² | - |
| 1778012267 | 21.11° C | 55% | 1015.9 hPa | 0 mm | - | 207 W/m² | - |
* Rain latest hour (hover to see other rain measurements)
** Current wind speed in m/s (hover to see current wind gust speed)